星链-31780 (STARLINK-31780 )

导读

STARLINK-31780是美国太空探索技术公司 SpaceX 星链互联网卫星星座的一员,于北京时间2024年4月7日发射入轨,属于星链低轨道卫星组网补网任务星。它将部署在近地轨道,为全球提供高速低延迟互联网接入服务,延续星链项目全球覆盖的部署目标,同时也承担卫星星座迭代补网,维持星座服务容量与网络稳定性的作用。

基本信息
目录编号:
59432
目录名称:
STARLINK-31780
国际标识:
2024-065M
轨道中心:
EARTH
卫星名称:
星链-31780
卫星全名:
星链-31780 (STARLINK-31780 )
卫星状态:
在轨 (已飞行888 天)
发射日期:
2024-04-07 UTC
国别 :
美国 (US)
星等 :
--
该卫星已列入 空间交会检测服务 Space Conjunction Data Service (SCDS) ,当前飞行风险评估等级: 无高风险
轨道信息
数据来源 国际轨道数据 AOE轨道数据
星历时间 2026-09-11T17:08:33+0800
16小时前
查看轨道信息
2026-09-09T23:00:00+0800
2天前
查看轨道信息
半长轴 6840.846km 6840.873km
偏心率 0.0001426 0.0001514
轨道倾角 53.159° 53.159°
近地点辐角 95.823° 66.821°
升交点赤经 136.032° 144.244°
平近点角 264.294° 308.429°
近地点 461.733km 461.7km
远地点 463.685km 463.772km
周期 93.848分钟 93.848分钟
每日圈数 15.343981 15.34389
详细信息
固有亮度:
5
最大亮度:
1.5
卫星平台:
Starlink v2.0 mini
覆盖范围:
全球
运营商:
太空探索技术公司
运营商所在国:
美国
制造商(研发单位):
太空探索技术公司
制造商所在国:
美国
使用方式:
暂无
卫星简介
星链(Starlink)计划是由太空探索技术公司(SpaceX)提出的一个巨型低轨卫星互联网星座项目,计划在2019年至2024年间在太空搭建由约1.2万颗卫星组成的“星链”网络,其中1584颗将部署在地球上空550千米处的近地轨道,并从2020年开始工作。该卫星仍在工作。
2D轨道图
3D轨道图
轨道高度分析图
轨道倾角分析图
轨道综合分析图
查看轨道综合分析图
交会数据列表
事件ID 空间交会对象 最接近时刻(TCA) 交会距离 交会风险概率(CRP) 交会风险指数(CRI) 操作
CDM_260908-160104-521205-943223
2026-09-08T
16:01:32+0000
1.917 km
极远距离
2.366743E-6 低风险 0.42
CDM_260905-023804-941805-943221
2026-09-05T
02:38:07+0000
2.562 km
极远距离
7.245225E-7 极低风险 0.32
与全量物体交会距离演化趋势
与全量物体交会风险概率演化趋势